This demonstration page uses our WeatherBlox Daily Observations layout. Learn more.

Left ArrowRight Arrow

34.74481, -87.66753

Hourly Observations for February 23, 2018

Temp ( °F °C ) Dew Point ( °F °C ) Humidity (%) Winds ( mph kmh ) Pressure ( in mb ) Visibility ( mi km ) Precip ( " mm )
12:53 am 00:53 Clear 67 19.4 59 15 76 76 SSE 7 11 30.27 1025 10 16 0.00 0.00
1:53 am 01:53 Clear 68 20 59 15 73 73 S 8 13 30.27 1025 10 16 0.00 0.00
2:53 am 02:53 Clear 67 19.4 60 15.6 79 79 S 8 13 30.27 1025 10 16 0.00 0.00
3:53 am 03:53 Clear 66 18.9 60 15.6 81 81 S 7 11 30.27 1025 10 16 0.00 0.00
4:53 am 04:53 Clear 66 18.9 59 15 78 78 S 8 13 30.27 1025 10 16 0.00 0.00
5:53 am 05:53 Clear 65 18.3 59 15 81 81 S 6 9 30.28 1026 10 16 0.00 0.00
6:53 am 06:53 Sunny 65 18.3 59 15 81 81 S 5 7 30.31 1026 10 16 0.00 0.00
7:53 am 07:53 Mostly Sunny 67 19.4 61 16.1 81 81 SSW 6 9 30.34 1027 10 16 0.00 0.00
8:53 am 08:53 Sunny 70 21.1 62 16.7 76 76 SSW 7 11 30.35 1028 10 16 0.00 0.00
9:53 am 09:53 Cloudy 73 22.8 61 16.1 66 66 SSW 8 13 30.34 1027 10 16 0.00 0.00
10:53 am 10:53 Partly Cloudy 76 24.4 60 15.6 58 58 SW 7 11 30.32 1027 10 16 0.00 0.00
11:53 am 11:53 Partly Cloudy 77 25 59 15 54 54 S 12 19 30.29 1026 10 16 0.00 0.00
12:53 pm 12:53 Mostly Sunny 78 25.6 59 15 52 52 S 8 13 30.25 1025 10 16 0.00 0.00
1:53 pm 13:53 Sunny 77 25 56 13.3 48 48 S 10 17 30.22 1023 10 16 0.00 0.00
2:53 pm 14:53 Sunny 78 25.6 54 12.2 43 43 S 7 11 30.21 1023 10 16 0.00 0.00
3:53 pm 15:53 Sunny 78 25.6 53 11.7 42 42 VRB 5 7 30.20 1023 10 16 0.00 0.00
4:53 pm 16:53 Sunny 75 23.9 54 12.2 48 48 S 5 7 30.19 1022 10 16 0.00 0.00
5:53 pm 17:53 Clear 72 22.2 54 12.2 53 53 SSE 3 6 30.19 1023 10 16 0.00 0.00
6:53 pm 18:53 Partly Cloudy 70 21.1 56 13.3 61 61 SSE 5 7 30.19 1022 10 16 0.00 0.00
7:53 pm 19:53 Cloudy 70 21.1 56 13.3 61 61 S 3 6 30.18 1022 10 16 0.00 0.00
8:53 pm 20:53 Cloudy with Light Rain 69 20.6 58 14.4 68 68 WSW 5 7 30.19 1022 10 16 0.00 0.03
9:53 pm 21:53 Cloudy with Light Rain 67 19.4 59 15 76 76 WSW 6 9 30.19 1022 6 10 0.03 0.76
10:53 pm 22:53 Cloudy with Light Rain 64 17.8 61 16.1 90 90 Calm 30.16 1021 10 16 0.01 0.25
11:32 pm 23:32 Cloudy with Heavy Rain 64 17.8 61 16.1 90 90 WNW 3 6 30.15 1021 2 3 0.05 1.27
11:53 pm 23:53 Cloudy with Heavy Rain 64 17.8 61 16.1 90 90 SW 3 6 30.16 1021 2 3 0.17 4.32

Powered by AerisWeather